www.pogodaiklimat.ru

Погода и климат >> Архив погоды >> Россия >> Краснодарский край >> Геленджик


АРХИВ ПОГОДЫ в Геленджике

Время (UTC), дата Ветер
(напр.,м/с)
 
Видим.   Явления Облачность Т
(С)
Тd
(С)
f
(%)
Тe
(С)
Тes
(С)
Комфортность P
(гПа)
Po
(гПа)
Тmin
(С)
Tmax
(С)
R
(мм)
R24
(мм)
S
(см)
12 17.03 СЗ 2 10 км слаб. ливневой дождь 10/8 600 м
[Cb cap]
+6.8 +4.6 86 +5 +5 по сезону 1012.6 1010.6
15 17.03 З 2 20 км {ливн. осадки} 9/8 1000 м
[Sc Ac trans Ci fib]
+7.7 +3.2 73 +6 +6 тепло 1015.6 1013.6 +9.9 7
18 17.03 штиль 0 10 км {ливн. осадки} 9/6 600 м
[Cb cap Ac As Ci fib]
+6.9 +3.4 78 +6 +6 тепло 1018.2 1016.2
21 17.03 ЮЗ 4
{11}
10 км слаб. ливневой дождь 10/10 600 м
[Cb cap]
+6.5 +3.8 83 +3 +3 по сезону 1019.0 1017.0
00 18.03 В 1 10 км в посл. час ливневой дождь 8/6 600 м
[Cb cap Ac trans]
+5.8 +3.1 83 +5 +5 тепло 1019.9 1017.9
03 18.03 В 1 10 км 8/6 600 м
[Cu Sc Ac cast]
+5.6 +2.4 80 +5 +5 тепло 1021.2 1019.2 +4.6 1
06 18.03 СВ 2 10 км слаб. ливневой дождь 10/10 600 м
[Cb cap]
+6.4 +3.1 79 +4 +4 по сезону 1023.1 1021.1
09 18.03 В 1 10 км слаб. ливневой дождь 10/10 600 м
[Cb cap]
+7.1 +5.0 86 +6 +6 тепло 1023.9 1021.9
12 18.03 ЮВ 3 50 км {ливн. осадки} 8/5 600 м
[Sc diur, vesp Ac trans]
+9.1 +4.4 72 +7 +9 по сезону 1024.2 1022.2
15 18.03 штиль 0 50 км 4/3 600 м
[Sc diur, vesp Ac trans]
+9.3 +3.7 68 +9 +9 тепло 1023.8 1021.8 +10.0 8
18 18.03 штиль 0 10 км ясно +6.1 +3.9 86 +5 +5 по сезону 1024.6 1022.6
21 18.03 Ю 1 10 км ясно +5.7 +3.5 86 +5 +5 тепло 1023.8 1021.8
00 19.03 ЮВ 1 10 км ясно +6.9 +1.8 70 +6 +6 тепло 1023.7 1021.7
03 19.03 ЮВ 2 10 км ясно +7.1 +2.7 74 +5 +5 тепло 1024.0 1022.0 +4.2
06 19.03 С 1 50 км ясно +9.1 +4.2 71 +9 +14 тепло 1024.5 1022.5
09 19.03 ЮВ 3 50 км 6/4
[Cu hum Ac trans]
+10.4 +6.2 75 +8 +13 тепло 1024.2 1022.2
12 19.03 Ю 1 50 км 8/8 300 м
[Cu Sc]
+10.7 +5.8 72 +11 +12 тепло 1024.0 1022.0
15 19.03 З 1 50 км ясно +9.3 +4.9 74 +9 +9 тепло 1022.6 1020.6 +11.5
18 19.03 З 1 10 км ясно +7.2 +4.8 85 +6 +6 тепло 1022.2 1020.2
21 19.03 В 1-10
{10}
10 км 1/1 600 м
[Sc]
+9.1 +3.9 70 +9 +9 тепло 1021.8 1019.8
00 20.03 СВ 2 10 км ясно +7.9 +3.2 72 +6 +6 тепло 1020.8 1018.8
03 20.03 С 1 10 км ясно +5.7 +3.1 83 +5 +5 тепло 1020.7 1018.7 +5.6
06 20.03 штиль 0 20 км 1/1 300 м
[St]
+9.3 +4.2 70 +9 +14 тепло 1020.8 1018.8 +5.0
09 20.03 ЮВ 1 20 км 3/0
[Cs]
+11.5 +4.9 64 +12 +24 опасность
простуды
1020.6 1018.6
12 20.03 ЮЗ 2 20 км 1/0
[Cs]
+11.0 +6.9 76 +10 +17 тепло 1020.2 1018.2
15 20.03 ЮВ 1 20 км 3/0
[Cs]
+10.2 +7.0 81 +10 +10 тепло 1020.7 1018.7 +12.9
18 20.03 ЮВ 2 10 км 3/3 300 м
[St]
+8.8 +7.2 90 +7 +7 тепло 1021.7 1019.7
21 20.03 В 1 4000 м дымка ясно +8.5 +7.4 93 +8 +8 тепло 1022.0 1020.0
00 21.03 СВ 1 4000 м дымка ясно +7.9 +7.0 94 +7 +7 тепло 1023.2 1021.2
03 21.03 СВ 1 10 км 10/10 300 м
[St]
+8.0 +6.5 90 +7 +7 тепло 1024.2 1022.2 +7.6
06 21.03 ЮЗ 1 10 км 10/8 600 м
[Sc Ac cast]
+9.4 +6.1 80 +9 +9 тепло 1025.6 1023.6
09 21.03 ЮВ 3 4000 м дымка 10/10 300 м
[St]
+8.6 +6.0 84 +6 +6 по сезону 1026.5 1024.5
12 21.03 ЮВ 1 10 км 10/8 600 м
[Sc Ac trans]
+9.0 +5.6 79 +8 +9 по сезону 1026.5 1024.5
15 21.03 З 1 4000 м слаб. морось 10/10 300 м
[St]
+8.1 +5.4 83 +7 +7 по сезону 1026.3 1024.3 +10.3 0.0
18 21.03 штиль 0 10 км {морось} 10/10 600 м
[Sc]
+8.1 +5.7 85 +7 +7 тепло 1027.0 1025.0
21 21.03 штиль 0 10 км 8/6 600 м
[Sc Ac trans]
+7.8 +5.3 84 +7 +7 тепло 1026.7 1024.7
00 22.03 СВ 1 10 км 8/3 1000 м
[Sc Ac trans Ci fib]
+5.8 +4.6 92 +5 +5 по сезону 1026.3 1024.3
03 22.03 С 1 10 км 10/5 1000 м
[Sc Ac trans]
+6.4 +3.5 82 +5 +5 по сезону 1025.7 1023.7 +5.2 0.0
06 22.03 СЗ 1 50 км 8/1 1000 м
[Sc Ac trans]
+8.8 +3.2 68 +8 +11 тепло 1026.1 1024.1
09 22.03 З 4 50 км 3/3 1000 м
[Sc Ac As]
+9.5 +3.8 68 +7 +12 по сезону 1025.7 1023.7
12 22.03 З 4 20 км 10/4 600 м
[Cu Sc Ac trans Cc]
+10.2 +4.4 67 +8 +9 по сезону 1024.6 1022.6
15 22.03 ЮЗ 2 20 км 10/6 600 м
[Sc Ac und]
+8.4 +3.2 70 +7 +7 по сезону 1023.4 1021.4 +10.6
18 22.03 ЮВ 1 10 км 6/6 600 м
[Sc]
+8.5 +5.2 80 +8 +8 тепло 1022.5 1020.5
21 22.03 СЗ 2 10 км 6/5 600 м
[Sc]
+8.8 +6.2 84 +7 +7 тепло 1020.4 1018.4
00 23.03 ЮЗ 5-13
{13}
10 км слаб. ливневой дождь 10/10 300 м
[Cb cap]
+8.0 +5.8 86 +4 +4 по сезону 1018.5 1016.5
03 23.03 штиль 0 10 км в посл. час ливневой дождь 10/10 300 м
[Cb cap]
+4.8 +3.2 89 +4 +4 по сезону 1016.9 1014.9 +4.8 6
06 23.03 штиль 0 50 км {ливн. осадки} 8/5 600 м
[Sc Ac trans Cc]
+6.0 +2.1 76 +5 +8 по сезону 1016.7 1014.7 +4.6
09 23.03 ЮЗ 3 50 км 8/8 600 м
[Sc]
+8.5 +0.3 56 +6 +8 по сезону 1015.5 1013.5
12 23.03 С 3
{12}
50 км {ливн. осадки} 10/10 600 м
[]
+4.6 +0.5 75 +1 +1 холодно 1015.7 1013.7
15 23.03 З 1 50 км {ливн. осадки} 3/1 600 м
[Sc Ac trans]
+5.0 -1.0 65 +4 +4 по сезону 1016.1 1014.1 +9.0
18 23.03 СЗ 1 10 км {ливн. осадки} ясно +3.8 -1.6 68 +3 +3 по сезону 1017.5 1015.5
21 23.03 С 1 10 км ясно +1.5 -3.2 71 0 0 прохладно 1018.1 1016.1
00 24.03 штиль 0 10 км ясно +1.8 -3.0 70 +1 +1 по сезону 1018.0 1016.0
03 24.03 СВ 1 10 км {ливн. осадки} 10/10 600 м
[Cb cap]
+2.4 -0.7 80 +1 +1 по сезону 1018.3 1016.3 +1.1
06 24.03 СВ 1 20 км {ливн. осадки} 10/10 600 м
[Sc diur, vesp]
+4.6 +0.4 74 +3 +3 по сезону 1019.1 1017.1
09 24.03 З 2 20 км 10/10 600 м
[Sc diur, vesp]
+7.1 -2.3 51 +5 +5 по сезону 1018.9 1016.9

 

Местоположение метеостанции Геленджик (Краснодарский край, Россия): широта 44.57 долгота 38.08 высота над уровнем моря 15 м.

В архиве по умолчанию представлена погода в Геленджике за последнюю неделю. Архивные данные за месяц целиком и за предыдущие месяцы, начиная с января 2011 года, Вы можете получить, выбрав интересующий диапазон дат из раскрывающегося списка и нажав кнопку "Ввод!".


*Определитесь, кто Вы:
робот инопланетянин человек

Внимание! Время в таблицах - всемирное. Для получения местного времени необходимо прибавить поправку, которая равна 3 ч.

Смотрите также архив погоды в соседних городах и на ближайших метеорологических станциях:

Погода в Новороссийске (Краснодарский край, Россия) (25 км)
Погода в Крымске (Краснодарский край, Россия) (39 км)
Погода в Джубге (Краснодарский край, Россия) (57 км)
Погода в Анапе (Краснодарский край, Россия) (72 км)
Погода в Славянске-на-Кубани (Краснодарский край, Россия) (79 км)
Погода в Горячем Ключе (Краснодарский край, Россия) (81 км)
Погода в Краснодаре (Краснодарский край, Россия) (92 км)
Погода в Туапсе (Краснодарский край, Россия) (95 км)
Погода в Горном (Краснодарский край, Россия) (100 км)
Погода в Темрюке (Краснодарский край, Россия) (100 км)

Пояснения к столбцам:

Ветер - указаны скорость ветра в м/с - средняя за 10 мин, порывы в срок и между сроками (в фигурных скобках) и направление, откуда дует ветер: С - северный, СВ - северо-восточный, В - восточный, ЮВ - юго-восточный, Ю - южный, ЮЗ - юго-западный, З - западный, СЗ - северо-западный.
Видимость - горизонтальная дальность видимости в метрах или километрах. При видимости от 1 до 10 км при отсутствии осадков обычно наблюдается дымка, при ухудшении видимости до 1 км и менее - туман. В сухую погоду видимость может ухудшаться дымом, пылью или мглою.
Явления - указаны атмосферные явления, наблюдавшиеся в срок или в последний час перед сроком; фигурными скобками обозначены явления, наблюдавшиеся между сроками (за 1-3 часа до срока); квадратными скобками обозначены град или гололедные отложения с указанием их диаметра в мм.
Облачность - указаны через наклонную черту общая и нижняя облачность в баллах и высота нижней границы облаков в метрах; квадратными скобками обозначены формы облаков: Ci - перистые, Cs - перисто-слоистые, Cc - перисто-кучевые, Ac - высококучевые, As - высокослоистые, Sc - слоисто-кучевые, Ns - слоисто-дождевые, Cu - кучевые, Cb - кучево-дождевые. Подробнее классификацию облаков см. в Атласе облаков (PDF).
T - Температура воздуха - температура, измеренная на высоте 2 м над землей.
Td - Температура точки росы - температура, при понижении до которой содержащийся в воздухе водяной пар достигнет насыщения.
f - Относительная влажность воздуха - влажноcть воздуха, измеренная на высоте 2 м над землей.
Te - Эффективная температура - температура, которую ощущает одетый по сезону человек в тени. Характеристика душности погоды. При расчете учитывается влияние влажности воздуха и скорости ветра на теплоощущения человека.
Tes - Эффективная температура на солнце - температура, которую ощущает человек, с поправкой на солнечный нагрев. Характеристика знойности погоды. Зависит от высоты солнца над горизонтом, облачности и скорости ветра. Ночью, в пасмурную погоду, а также при ветре 12 м/с и более поправка равна нулю.
P - Атмосферное давление - приведенное к уровню моря атмосферное давление.
Po - Атмосферное давление - измеренное на уровне метеостанции атмосферное давление.
Tmin - Минимальная температура - минимум температуры воздуха на высоте 2 м над землей.
Tmax - Максимальная температура - максимум температуры воздуха на высоте 2 м над землей.
R - Количество осадков - Количество выпавших осадков за период времени, мм. При наведении курсора мыши на число - период времени, за который выпало указанное количество осадков.
R24 - Количество осадков - Количество выпавших осадков за 24 часа, мм.
S - Снежный покров - Высота снежного покрова, см. При наведении курсора мыши на число - состояние снежного покрова и степень покрытия местности в баллах.